Weather History for Spadeadam Airport, United Kingdom

Change the Weather History Date:

Friday, December 13, 2013

  Actual Average Record
Temperature  
Mean Temperature 46 °F -  
Max Temperature 51 °F - - ()
Min Temperature 39 °F - - ()
Degree Days  
Heating Degree Days 19    
Moisture  
Dew Point 47 °F    
Average Humidity 97    
Maximum Humidity 100    
Minimum Humidity 87    
Precipitation  
Precipitation 0.00 in - - ()
Sea Level Pressure  
Sea Level Pressure 29.84 in    
Wind  
Wind Speed 14 mph ()    
Max Wind Speed 23 mph    
Max Gust Speed 33 mph    
Visibility 5.9 miles    
Events      
T = Trace of Precipitation, MM = Missing Value Source: Averaged Metar Reports

Daily Weather History Graph

Daily Weather History Graph

Search for Another Location

Airport:

Trip Planner

Search our weather history database for the weather conditions in past years. The results will help you decide how hot, cold, wet, or windy it might be!

Date:

Astronomy

Dec. 13, 2013 Rise Set
Actual Time 8:27 AM GMT 3:41 PM GMT
Civil Twilight 7:42 AM GMT 4:26 PM GMT
Nautical Twilight 6:54 AM GMT 5:14 PM GMT
Astronomical Twilight 6:10 AM GMT 5:58 PM GMT
Moon 1:42 PM GMT (12/13) 4:05 AM GMT (12/13)
Length of Visible Light 8h 44m
Length of Day
7h 13m
Waxing Gibbous, 86% of the Moon is Illuminated
Dec 13
Waxing Gibbous
Dec 17
Full
Dec 25
Last Quarter
Jan 1
New
Jan 8
First Quarter

Hourly Weather History & Observations

Time (GMT) Temp. Windchill Dew Point Humidity Pressure Visibility Wind Dir Wind Speed Gust Speed Precip Events Conditions
12:50 AM 50.0 °F - 50.0 °F 100% 29.95 in 5.0 mi South 3.5 mph - N/A   Mostly Cloudy
1:50 AM 51.8 °F - 51.8 °F 100% 29.92 in 6.2 mi SSW 15.0 mph - N/A   Scattered Clouds
2:50 AM 51.8 °F - 50.0 °F 94% 29.92 in 6.2 mi SSW 12.7 mph - N/A   Mostly Cloudy
3:50 AM 50.0 °F - 50.0 °F 100% 29.92 in 6.2 mi South 12.7 mph - N/A   Mostly Cloudy
4:50 AM 50.0 °F - 50.0 °F 100% 29.89 in 5.6 mi South 12.7 mph - N/A   Mostly Cloudy
5:50 AM 50.0 °F - 50.0 °F 100% 29.86 in 3.7 mi SSW 17.3 mph - N/A   Mostly Cloudy
6:50 AM 50.0 °F - 50.0 °F 100% 29.83 in 6.2 mi South 20.7 mph - N/A   Mostly Cloudy
7:50 AM 50.0 °F - 50.0 °F 100% 29.83 in 6.2 mi South 19.6 mph - N/A   Mostly Cloudy
8:50 AM 50.0 °F - 50.0 °F 100% 29.83 in 6.2 mi South 19.6 mph - N/A   Mostly Cloudy
9:50 AM 50.0 °F - 50.0 °F 100% 29.80 in 6.2 mi South 17.3 mph - N/A   Mostly Cloudy
10:50 AM 50.0 °F - 50.0 °F 100% 29.80 in 6.2 mi SSW 21.9 mph - N/A   Mostly Cloudy
11:50 AM 50.0 °F - 50.0 °F 100% 29.80 in 6.2 mi SSW 21.9 mph - N/A   Mostly Cloudy
12:50 PM 50.0 °F - 50.0 °F 100% 29.77 in 6.2 mi SSW 20.7 mph - N/A   Mostly Cloudy
1:50 PM 50.0 °F - 50.0 °F 100% 29.74 in 6.2 mi SSW 21.9 mph - N/A   Mostly Cloudy
2:50 PM 48.2 °F - 48.2 °F 100% 29.77 in 6.2 mi SW 19.6 mph - N/A   Mostly Cloudy
3:50 PM 46.4 °F 38.5 °F 44.6 °F 93% 29.77 in 6.2 mi WSW 21.9 mph - N/A   Mostly Cloudy
4:50 PM 46.4 °F 38.7 °F 46.4 °F 100% 29.77 in 6.2 mi WSW 20.7 mph - N/A   Mostly Cloudy
5:50 PM 46.4 °F 39.2 °F 44.6 °F 93% 29.80 in 6.2 mi WSW 18.4 mph - N/A   Mostly Cloudy
6:50 PM 44.6 °F 36.9 °F 42.8 °F 93% 29.80 in 6.2 mi SW 18.4 mph - N/A   Mostly Cloudy
7:50 PM 44.6 °F 35.9 °F 41.0 °F 87% 29.83 in 6.2 mi SW 23.0 mph - N/A   Mostly Cloudy
8:50 PM 42.8 °F 33.8 °F 39.2 °F 87% 29.86 in 6.2 mi WSW 21.9 mph - N/A   Scattered Clouds
9:50 PM 41.0 °F 33.5 °F 39.2 °F 93% 29.86 in 6.2 mi SW 13.8 mph - N/A   Mostly Cloudy
10:50 PM 41.0 °F 33.1 °F 39.2 °F 93% 29.89 in 6.2 mi WSW 15.0 mph - N/A   Scattered Clouds
11:50 PM 39.2 °F 30.2 °F 37.4 °F 93% 29.89 in 3.1 mi WSW 17.3 mph 33.4 mph N/A   Light Drizzle